Change the Weather History Date:

Wednesday, January 16, 2013

  Actual Average Record
Temperature  
Mean Temperature 33 °F -  
Max Temperature 39 °F - - ()
Min Temperature 27 °F - - ()
Degree Days  
Heating Degree Days 32    
Moisture  
Dew Point 25 °F    
Average Humidity 71    
Maximum Humidity 86    
Minimum Humidity 55    
Precipitation  
Precipitation 0.00 in - - ()
Sea Level Pressure  
Sea Level Pressure 29.90 in    
Wind  
Wind Speed 4 mph ()    
Max Wind Speed 16 mph    
Max Gust Speed 25 mph    
T = Trace of Precipitation, MM = Missing Value Source: Averaged Metar Reports

Daily Weather History Graph

Daily Weather History Graph

Search for Another Location

Airport or City:

Trip Planner

Search our weather history database for the weather conditions in past years. The results will help you decide how hot, cold, wet, or windy it might be!

Date:

Astronomy

Jan. 16, 2013 Rise Set
Actual Time 7:45 AM EST 5:09 PM EST
Civil Twilight 7:14 AM EST 5:40 PM EST
Nautical Twilight 6:39 AM EST 6:15 PM EST
Astronomical Twilight 6:05 AM EST 6:50 PM EST
Moon 10:11 AM EST (1/16) 11:10 PM EST (1/16)
Length of Visible Light 10h 26m
Length of Day
9h 23m
Waxing Crescent, 28% of the Moon is Illuminated
Jan 16
Waxing Crescent
Jan 18
First Quarter
Jan 26
Full
Feb 3
Last Quarter
Feb 10
New

Hourly Weather History & Observations

Time (EST) Temp. Windchill Dew Point Humidity Pressure Visibility Wind Dir Wind Speed Gust Speed Precip Events Conditions
12:00 AM 28.2 °F - 23.0 °F 81% 30.16 in - Calm Calm - N/A   Unknown
1:00 AM 28 °F - 23 °F 73% 30.12 in - WNW 1.2 mph - -  
1:00 AM 27.5 °F - 22.8 °F 83% 30.12 in - WNW 1.2 mph - N/A   Unknown
2:00 AM 27.9 °F - 23.5 °F 84% 30.11 in - SW 2.3 mph - N/A   Unknown
3:00 AM 27.7 °F - 23.9 °F 86% 30.09 in - SSW 2.3 mph - N/A   Unknown
5:00 AM 28.6 °F - 23.9 °F 83% 30.04 in - SW 2.3 mph - N/A   Unknown
6:00 AM 28.8 °F - 23.0 °F 79% 30.00 in - South 1.2 mph - N/A   Unknown
7:00 AM 29 °F - 24 °F 73% 29.99 in - SSW 1.2 mph - -  
8:00 AM 29.5 °F - 19.9 °F 68% 29.96 in - South 2.3 mph - N/A   Unknown
9:00 AM 29.3 °F - 22.5 °F 76% 29.94 in - SW 2.3 mph - N/A   Unknown
10:00 AM 30.6 °F - 22.8 °F 73% 29.91 in - NW 2.3 mph - N/A   Unknown
11:00 AM 31.6 °F - 25.0 °F 76% 29.86 in - NNW 1.2 mph - N/A   Unknown
12:00 PM 32.9 °F 28.5 °F 25.3 °F 74% 29.85 in - NW 4.6 mph - N/A   Unknown
1:00 PM 38 °F - 28 °F 55% 29.81 in - WSW 6.9 mph - -  
1:00 PM 38.3 °F 33.2 °F 27.7 °F 66% 29.81 in - WSW 6.9 mph - N/A   Unknown
2:00 PM 38.5 °F 31.1 °F 27.3 °F 64% 29.78 in - SW 11.5 mph 19.6 mph N/A   Unknown
3:00 PM 39.4 °F 32.3 °F 28.2 °F 64% 29.77 in - WSW 11.5 mph 17.3 mph N/A   Unknown
4:00 PM 37.4 °F 28.9 °F 27.0 °F 66% 29.77 in - SW 13.8 mph 20.7 mph N/A   Unknown
5:00 PM 35.2 °F 27.1 °F 26.2 °F 70% 29.78 in - SW 11.5 mph 18.4 mph N/A   Unknown
6:00 PM 34.3 °F 24.6 °F 25.9 °F 71% 29.78 in - SW 15.0 mph 21.9 mph N/A   Unknown
7:00 PM 34 °F - 26 °F 62% 29.79 in - WSW 13.8 mph - -  
7:00 PM 34.3 °F 25.0 °F 25.9 °F 71% 29.79 in - WSW 13.8 mph 24.2 mph N/A   Unknown
8:00 PM 35.2 °F 25.4 °F 25.5 °F 68% 29.80 in - WSW 16.1 mph 25.3 mph N/A   Unknown
9:00 PM 36.0 °F 27.1 °F 24.8 °F 64% 29.81 in - WSW 13.8 mph 20.7 mph N/A   Unknown
10:00 PM 36.1 °F 27.7 °F 24.8 °F 63% 29.82 in - WSW 12.7 mph 21.9 mph N/A   Unknown
11:00 PM 36.0 °F 28.0 °F 24.6 °F 63% 29.82 in - West 11.5 mph - N/A   Unknown